Temp
71 71 71 71 70 71 73 74 74 74 74 74 74 74 74 74 74 74 73 73 70 70 70 70 72 72 74 73 73 74 75 75 74 74 74 73 73 73 72 72 72 72 72 71 70 70 71 71 72 72 73 73 73 69 67 67 67 68 68 69 69 69
71 71 71 70 70 71 72 72 70 71 72 73 73 74 72 71 73 70 72 70 68 70 69 70 71 74 72 73 73 74 74 74 74 73 73 73 72 72 72 72 72 71 71 70 68 64 65 70 72 72 73 72 68 67 67 67 67 68 68 68 68 71
71 71 71 71 70 70 70 70 70 70 71 73 73 71 70 70 69 70 70 69 69 68 69 69 70 72 72 74 73 74 74 74 73 73 73 72 72 72 72 71 70 69 68 67 63 62 63 63 67 73 73 69 66 66 66 66 67 67 67 69 68 73
71 71 70 70 70 70 69 69 70 70 69 69 69 69 69 69 69 69 69 69 69 69 68 68 74 75 73 71 72 74 74 73 73 73 73 71 72 71 70 71 71 68 65 63 62 64 64 64 65 65 66 66 66 66 66 66 67 67 67 71 68 73
71 71 70 70 70 69 69 69 69 69 69 68 68 68 68 68 69 69 69 69 68 68 67 68 68 68 68 69 68 68 68 67 67 67 69 65 65 66 65 64 64 64 62 64 64 64 65 65 65 66 66 66 66 66 66 67 67 67 67 69 70 73
71 70 70 70 69 70 69 68 67 68 68 67 67 67 67 67 68 68 68 68 68 66 67 67 67 67 67 67 67 66 66 66 66 65 66 64 64 64 64 64 64 64 63 64 64 64 66 66 65 66 66 66 66 66 66 66 67 67 67 68 71 73
69 70 70 70 70 69 67 67 67 67 67 66 67 66 66 67 68 67 67 67 66 65 66 66 67 67 66 66 66 65 65 65 64 63 65 64 63 63 63 64 63 63 63 64 64 64 65 65 66 67 66 66 66 66 66 66 67 67 67 68 71 73
69 69 69 70 69 67 66 67 68 69 67 67 66 65 65 66 67 66 66 66 66 65 65 65 66 66 66 66 65 65 63 63 63 63 63 63 63 63 63 63 63 63 64 64 64 64 65 65 65 67 66 65 65 65 65 66 67 67 67 68 69 72
69 69 69 69 68 66 67 67 67 67 67 68 65 65 65 66 65 65 66 66 66 65 65 65 66 66 66 65 65 65 63 63 63 63 63 63 63 63 63 63 62 62 62 63 63 64 64 64 65 66 66 65 65 65 65 66 66 67 67 68 68 71
69 69 68 68 66 66 66 66 66 67 67 67 65 65 65 65 65 65 65 65 65 64 64 65 66 66 66 64 64 63 63 63 63 63 63 64 64 62 62 62 61 61 63 63 64 65 64 64 65 65 66 66 65 65 65 65 66 67 67 68 68 71
69 69 68 67 66 65 66 65 66 66 66 65 65 65 64 65 65 64 64 65 65 65 64 65 65 65 64 63 63 62 62 63 63 63 64 64 64 63 62 62 62 62 62 62 63 64 64 64 64 65 65 66 65 65 65 65 66 67 68 68 68 69
68 68 67 67 66 65 65 65 66 66 65 65 65 64 63 64 65 64 64 64 64 64 65 64 64 63 63 62 62 62 62 62 62 63 64 64 64 63 63 64 64 63 62 62 62 63 63 63 63 64 64 65 65 65 65 65 66 66 66 67 67 68
68 67 67 66 66 65 65 65 65 65 65 65 65 64 63 64 63 64 64 64 64 65 65 64 63 64 65 63 63 63 62 62 63 64 64 65 65 65 64 63 62 63 62 62 62 62 64 63 63 63 64 65 65 65 65 65 65 65 65 65 65 66
67 67 67 67 66 65 64 64 65 64 65 66 65 64 64 63 64 64 64 64 64 65 64 64 64 64 64 64 64 63 62 62 63 64 64 65 64 64 63 63 63 63 63 61 61 61 62 62 62 63 64 64 64 65 65 65 65 65 65 64 65 65
67 66 67 66 66 65 64 64 64 64 64 65 65 65 64 64 65 64 64 64 65 65 64 64 64 64 63 64 63 63 62 63 64 64 64 65 65 64 63 62 62 62 61 61 61 62 62 61 62 62 63 64 64 64 65 64 64 65 65 64 64 65
67 66 66 65 65 65 64 64 64 65 63 65 65 65 64 65 64 64 64 64 65 65 64 64 64 63 62 63 63 63 64 64 64 63 63 64 64 62 61 61 61 61 61 61 61 61 61 62 62 62 63 63 63 64 63 64 64 64 64 64 64 64
66 66 66 65 64 65 65 63 64 65 64 64 65 65 64 64 65 64 64 64 65 65 64 64 64 64 63 63 62 63 64 64 64 63 62 62 62 62 62 61 61 61 60 60 61 61 61 62 62 62 62 62 63 63 63 64 63 63 64 63 63 64
67 67 66 65 64 64 64 64 64 64 64 64 65 65 65 65 64 64 65 64 64 65 64 64 64 64 63 64 63 63 64 64 64 63 63 63 62 62 62 61 61 62 62 60 60 61 61 62 62 62 62 62 63 63 63 64 64 64 63 63 63 63
67 66 65 65 65 64 64 64 64 65 64 64 65 65 64 64 64 64 65 64 65 65 65 64 64 64 63 63 63 64 64 64 63 62 63 62 62 62 62 61 61 61 61 61 61 61 62 62 62 62 62 62 63 63 63 63 63 63 63 64 65 65
66 65 65 64 64 64 64 64 64 64 64 65 65 65 64 64 64 64 64 64 64 64 64 64 64 63 63 63 63 64 64 63 63 63 62 62 62 62 61 60 61 61 61 62 62 62 62 62 61 62 61 62 63 63 63 63 63 63 63 63 62 62
65 65 64 64 63 63 63 63 64 64 64 65 65 65 64 64 63 63 64 64 64 64 64 64 64 63 62 64 63 64 64 63 63 64 63 63 63 63 61 61 61 61 61 61 61 61 61 62 61 59 61 61 61 63 63 62 61 62 62 62 63 63
65 65 65 64 64 64 64 65 64 64 64 65 65 64 63 63 62 63 63 64 64 64 64 64 64 63 63 63 63 63 63 63 64 64 65 65 65 63 61 61 61 59 60 61 60 62 60 58 58 58 58 58 59 60 61 62 62 62 62 62 62 63
65 65 65 65 65 64 65 65 65 65 65 63 65 64 62 62 63 63 62 63 64 63 63 63 63 64 63 63 63 63 63 64 64 65 64 63 64 63 61 61 60 60 59 60 60 60 59 59 56 57 59 58 56 56 58 60 62 62 62 62 62 62
65 65 65 65 66 66 66 65 65 65 65 63 62 63 61 61 62 62 61 62 62 63 63 63 63 64 63 62 63 63 63 63 64 65 64 63 63 63 62 61 59 59 60 59 59 60 60 60 59 60 56 55 55 57 55 56 57 60 62 62 62 62
65 65 65 65 65 65 64 63 62 63 63 61 61 60 61 59 59 62 61 61 61 62 63 63 63 63 63 62 62 63 63 63 63 64 64 63 63 63 63 62 60 60 60 59 57 58 59 59 60 60 59 55 54 54 55 56 58 58 60 60 61 62
65 65 65 65 64 64 64 62 60 60 59 57 57 59 59 60 58 60 61 59 61 61 62 62 62 62 63 62 62 62 63 62 62 63 63 63 63 64 64 63 61 61 59 60 60 58 58 59 60 60 59 59 57 57 54 57 58 53 59 59 61 62
65 65 65 64 64 64 62 61 61 61 61 60 59 57 57 58 60 58 59 60 60 60 61 62 61 61 62 62 62 62 62 63 63 62 63 62 61 62 64 64 63 61 60 60 59 58 58 58 59 59 59 59 60 59 60 59 54 55 54 57 58 57
65 64 64 64 63 63 61 60 60 60 60 59 60 59 58 58 58 60 59 58 60 59 60 60 61 60 61 62 61 61 61 62 62 62 63 61 61 62 63 64 64 63 61 61 60 60 58 58 59 59 59 59 58 59 59 56 60 59 57 54 55 59
64 64 63 64 63 62 62 60 60 60 59 59 60 59 59 60 59 59 58 57 59 59 59 59 60 60 60 61 62 61 60 61 61 62 63 61 61 62 62 62 62 61 60 60 60 60 60 59 59 59 58 57 58 58 58 58 58 58 57 55 54 56
63 63 63 62 62 61 61 60 59 59 59 59 60 58 59 58 57 58 57 56 57 58 58 58 58 59 60 60 61 61 60 60 61 61 63 61 61 61 61 62 62 61 61 60 60 61 61 60 60 59 59 58 56 56 58 59 57 57 58 58 56 55
63 62 61 61 61 60 60 60 60 60 60 59 58 58 57 57 57 57 57 56 57 57 57 57 58 57 58 58 58 60 59 59 60 62 63 61 61 61 61 61 61 61 61 60 59 59 60 60 60 59 58 59 59 60 59 57 58 58 57 56 56 56
61 61 60 60 60 60 60 60 60 60 60 60 59 59 58 57 57 58 57 56 55 57 57 57 57 57 57 57 58 57 59 59 60 60 61 61 60 61 61 61 61 61 61 60 60 60 59 59 59 59 58 58 59 59 57 60 59 59 59 59 59 56
60 60 59 60 60 60 59 59 60 60 60 60 60 59 59 58 57 57 57 57 57 57 56 58 57 58 57 57 57 57 57 58 59 60 60 59 59 60 60 60 61 61 60 60 59 59 59 59 59 60 59 58 58 59 57 58 59 58 59 60 59 56
60 59 59 60 60 59 60 60 60 61 60 61 60 60 60 59 57 58 58 58 59 59 58 59 57 58 57 57 56 57 58 57 58 58 58 57 57 58 59 60 60 60 59 59 59 59 59 59 58 58 58 58 58 58 57 58 58 59 59 59 58 58
59 59 59 59 59 59 59 60 60 60 61 61 61 61 60 59 58 57 57 58 58 58 59 58 58 58 57 56 56 56 57 56 57 57 57 58 58 58 59 59 59 59 58 58 58 58 58 58 58 58 58 59 57 57 57 58 59 61 62 62 61 59
59 58 58 58 58 59 59 59 59 59 60 60 60 60 59 58 58 59 58 59 58 58 58 57 56 57 56 57 56 56 56 55 56 56 57 56 57 57 58 58 57 57 58 58 57 57 57 58 58 58 58 57 58 58 57 58 60 60 62 63 62 61
59 58 58 58 57 58 58 58 58 59 59 59 59 60 60 58 58 58 58 58 58 57 56 57 58 57 56 55 55 55 56 55 55 55 56 56 56 56 57 58 57 56 57 57 58 58 57 58 57 57 58 59 59 58 58 59 59 59 60 61 62 62
MSLP
1013.83 1013.99 1014.15 1014.31 1014.47 1014.63 1014.75 1014.91 1015.11 1015.27 1015.39 1015.55 1015.71 1015.87 1016.03 1016.19 1016.35 1016.55 1016.75 1017.03 1017.11 1017.19 1017.39 1017.47 1017.51 1017.67 1017.83 1017.95 1018.03 1018.11 1018.15 1018.27 1018.39 1018.43 1018.47 1018.47 1018.55 1018.67 1018.75 1018.79 1018.71 1018.71 1018.75 1018.91 1019.11 1019.15 1019.15 1019.19 1019.23 1019.23 1019.31 1019.43 1019.63 1019.99 1020.23 1020.39 1020.55 1020.63 1020.75 1020.79 1020.87 1020.95
1013.99 1014.15 1014.31 1014.47 1014.59 1014.71 1014.83 1015.03 1015.23 1015.35 1015.51 1015.63 1015.79 1015.99 1016.19 1016.35 1016.55 1016.75 1017.03 1017.15 1017.31 1017.31 1017.39 1017.51 1017.59 1017.71 1017.91 1018.03 1018.11 1018.15 1018.27 1018.43 1018.51 1018.59 1018.71 1018.71 1018.67 1018.83 1018.91 1018.95 1018.91 1018.79 1018.79 1018.95 1019.11 1019.27 1019.27 1019.23 1019.27 1019.27 1019.39 1019.59 1019.91 1020.19 1020.39 1020.55 1020.71 1020.79 1020.87 1020.95 1020.99 1020.99
1014.15 1014.27 1014.43 1014.55 1014.67 1014.79 1014.99 1015.23 1015.39 1015.55 1015.67 1015.79 1015.95 1016.19 1016.39 1016.55 1016.75 1016.91 1017.11 1017.27 1017.35 1017.47 1017.47 1017.55 1017.67 1017.79 1017.95 1018.03 1018.11 1018.27 1018.43 1018.55 1018.63 1018.75 1018.87 1018.87 1018.83 1018.87 1018.99 1019.11 1019.03 1018.91 1018.91 1019.03 1019.23 1019.35 1019.35 1019.39 1019.43 1019.39 1019.51 1019.83 1020.15 1020.35 1020.55 1020.67 1020.79 1020.91 1021.03 1021.07 1021.15 1021.07
1014.19 1014.31 1014.47 1014.63 1014.79 1014.95 1015.15 1015.35 1015.55 1015.71 1015.87 1016.07 1016.23 1016.39 1016.59 1016.71 1016.87 1017.03 1017.19 1017.31 1017.47 1017.55 1017.59 1017.63 1017.67 1017.79 1017.95 1018.15 1018.27 1018.39 1018.51 1018.67 1018.75 1018.83 1018.87 1018.95 1018.95 1018.95 1019.11 1019.15 1019.11 1019.03 1019.03 1019.19 1019.35 1019.39 1019.43 1019.51 1019.63 1019.67 1019.83 1020.03 1020.27 1020.43 1020.59 1020.75 1020.87 1021.03 1021.15 1021.19 1021.31 1021.19
1014.15 1014.27 1014.43 1014.59 1014.83 1015.03 1015.19 1015.43 1015.63 1015.83 1016.03 1016.23 1016.43 1016.59 1016.75 1016.91 1017.03 1017.19 1017.31 1017.43 1017.59 1017.67 1017.75 1017.87 1017.99 1018.15 1018.23 1018.35 1018.47 1018.67 1018.79 1018.87 1018.95 1019.07 1019.03 1019.23 1019.31 1019.31 1019.31 1019.31 1019.31 1019.23 1019.27 1019.31 1019.39 1019.47 1019.47 1019.59 1019.71 1019.83 1019.99 1020.15 1020.31 1020.47 1020.71 1020.87 1021.03 1021.15 1021.23 1021.31 1021.35 1021.31
1014.07 1014.19 1014.35 1014.51 1014.75 1014.99 1015.23 1015.55 1015.79 1015.99 1016.19 1016.43 1016.59 1016.79 1016.95 1017.07 1017.19 1017.31 1017.43 1017.55 1017.67 1017.83 1017.99 1018.11 1018.23 1018.39 1018.47 1018.51 1018.71 1018.87 1019.03 1019.07 1019.15 1019.27 1019.27 1019.47 1019.55 1019.55 1019.47 1019.43 1019.43 1019.43 1019.47 1019.43 1019.47 1019.51 1019.47 1019.59 1019.83 1020.03 1020.23 1020.35 1020.47 1020.67 1020.87 1021.07 1021.15 1021.23 1021.31 1021.35 1021.39 1021.39
1014.07 1014.23 1014.43 1014.59 1014.83 1015.07 1015.43 1015.63 1015.83 1016.07 1016.35 1016.63 1016.75 1016.99 1017.15 1017.23 1017.31 1017.39 1017.51 1017.59 1017.83 1018.03 1018.19 1018.35 1018.47 1018.55 1018.71 1018.71 1018.91 1019.07 1019.19 1019.23 1019.31 1019.47 1019.55 1019.63 1019.71 1019.67 1019.63 1019.55 1019.55 1019.63 1019.59 1019.55 1019.59 1019.63 1019.63 1019.71 1019.83 1020.11 1020.35 1020.51 1020.67 1020.87 1021.03 1021.19 1021.31 1021.35 1021.39 1021.43 1021.43 1021.47
1014.03 1014.23 1014.59 1014.75 1015.03 1015.31 1015.55 1015.75 1015.91 1016.19 1016.51 1016.67 1016.91 1017.15 1017.27 1017.35 1017.39 1017.51 1017.63 1017.75 1017.87 1018.07 1018.27 1018.47 1018.63 1018.71 1018.83 1018.91 1019.07 1019.15 1019.23 1019.31 1019.47 1019.63 1019.67 1019.67 1019.75 1019.79 1019.71 1019.63 1019.59 1019.67 1019.59 1019.63 1019.71 1019.79 1019.83 1019.91 1019.99 1020.11 1020.35 1020.59 1020.79 1020.99 1021.15 1021.27 1021.35 1021.43 1021.47 1021.51 1021.55 1021.63
1014.11 1014.39 1014.63 1014.87 1015.23 1015.47 1015.63 1015.83 1016.07 1016.35 1016.63 1016.75 1017.03 1017.19 1017.27 1017.35 1017.51 1017.63 1017.75 1017.87 1017.91 1018.15 1018.35 1018.55 1018.71 1018.83 1018.87 1019.07 1019.19 1019.31 1019.39 1019.51 1019.63 1019.79 1019.75 1019.75 1019.79 1019.83 1019.75 1019.63 1019.63 1019.75 1019.79 1019.79 1019.83 1019.95 1020.03 1020.11 1020.15 1020.19 1020.31 1020.63 1020.91 1021.07 1021.23 1021.31 1021.39 1021.47 1021.55 1021.59 1021.71 1021.75
1014.27 1014.51 1014.75 1014.99 1015.31 1015.55 1015.75 1015.99 1016.23 1016.39 1016.55 1016.79 1017.03 1017.15 1017.27 1017.47 1017.59 1017.67 1017.87 1017.95 1018.03 1018.19 1018.43 1018.63 1018.75 1018.83 1018.95 1019.23 1019.35 1019.51 1019.59 1019.71 1019.87 1019.91 1019.91 1019.91 1019.87 1019.83 1019.75 1019.67 1019.71 1019.83 1019.91 1019.95 1019.99 1020.11 1020.19 1020.31 1020.39 1020.43 1020.51 1020.71 1020.99 1021.11 1021.23 1021.31 1021.43 1021.55 1021.67 1021.75 1021.83 1021.87
1014.47 1014.63 1014.83 1015.15 1015.35 1015.63 1015.79 1016.03 1016.19 1016.35 1016.51 1016.79 1016.99 1017.15 1017.31 1017.51 1017.71 1017.87 1017.95 1018.03 1018.19 1018.27 1018.47 1018.67 1018.75 1018.91 1019.11 1019.27 1019.47 1019.59 1019.75 1019.87 1020.03 1020.03 1019.95 1019.95 1019.87 1019.91 1019.91 1019.87 1019.87 1019.91 1019.99 1020.07 1020.15 1020.23 1020.31 1020.51 1020.63 1020.71 1020.75 1020.83 1021.03 1021.15 1021.27 1021.39 1021.51 1021.67 1021.79 1021.87 1021.95 1021.99
1014.71 1014.87 1014.99 1015.23 1015.43 1015.63 1015.79 1015.99 1016.15 1016.31 1016.59 1016.79 1016.95 1017.19 1017.39 1017.59 1017.87 1017.99 1018.03 1018.15 1018.27 1018.43 1018.55 1018.71 1018.79 1018.99 1019.11 1019.31 1019.47 1019.67 1019.83 1019.91 1020.03 1020.03 1019.95 1019.95 1019.99 1020.03 1020.03 1019.99 1019.99 1020.03 1020.11 1020.19 1020.31 1020.39 1020.51 1020.63 1020.87 1020.99 1021.07 1021.19 1021.23 1021.35 1021.55 1021.67 1021.79 1021.87 1021.99 1022.11 1022.15 1022.15
1014.87 1015.07 1015.15 1015.27 1015.39 1015.55 1015.71 1015.87 1016.11 1016.35 1016.59 1016.79 1017.03 1017.23 1017.47 1017.71 1017.95 1018.07 1018.15 1018.27 1018.39 1018.51 1018.55 1018.67 1018.83 1018.95 1019.15 1019.31 1019.47 1019.63 1019.83 1019.87 1019.99 1019.95 1019.99 1019.99 1020.07 1020.11 1020.11 1020.15 1020.11 1020.15 1020.23 1020.35 1020.47 1020.67 1020.71 1020.83 1021.03 1021.23 1021.27 1021.43 1021.51 1021.63 1021.63 1021.63 1021.67 1021.75 1021.91 1022.03 1022.19 1022.31
1015.07 1015.19 1015.23 1015.27 1015.39 1015.59 1015.71 1015.87 1016.11 1016.35 1016.55 1016.79 1017.03 1017.31 1017.55 1017.79 1017.99 1018.15 1018.23 1018.35 1018.43 1018.51 1018.59 1018.67 1018.79 1019.03 1019.19 1019.39 1019.55 1019.63 1019.75 1019.87 1019.99 1019.99 1020.03 1020.07 1020.19 1020.27 1020.35 1020.31 1020.31 1020.27 1020.47 1020.59 1020.75 1020.91 1020.99 1021.19 1021.35 1021.39 1021.51 1021.55 1021.63 1021.71 1021.63 1021.87 1022.19 1022.39 1022.35 1022.35 1022.35 1022.35
1015.15 1015.23 1015.27 1015.43 1015.51 1015.67 1015.75 1015.91 1016.15 1016.39 1016.63 1016.79 1017.03 1017.31 1017.63 1017.83 1018.03 1018.19 1018.27 1018.35 1018.43 1018.51 1018.63 1018.67 1018.75 1018.95 1019.27 1019.43 1019.63 1019.75 1019.83 1019.91 1020.03 1020.07 1020.15 1020.19 1020.27 1020.43 1020.47 1020.51 1020.47 1020.55 1020.71 1020.79 1020.91 1021.07 1021.27 1021.43 1021.55 1021.67 1021.75 1021.75 1021.83 1021.95 1022.19 1022.51 1022.47 1022.43 1022.51 1022.47 1022.43 1022.55
1015.19 1015.27 1015.35 1015.43 1015.55 1015.67 1015.87 1016.03 1016.19 1016.39 1016.71 1016.87 1017.11 1017.39 1017.63 1017.83 1017.99 1018.11 1018.23 1018.35 1018.43 1018.51 1018.63 1018.71 1018.79 1018.95 1019.27 1019.43 1019.59 1019.75 1019.87 1019.95 1020.03 1020.11 1020.15 1020.23 1020.35 1020.51 1020.59 1020.63 1020.71 1020.75 1020.83 1021.03 1021.11 1021.39 1021.51 1021.63 1021.71 1021.87 1021.95 1021.99 1022.15 1022.39 1022.67 1022.51 1022.31 1022.59 1022.63 1022.55 1022.59 1022.75
1015.23 1015.27 1015.39 1015.55 1015.67 1015.83 1015.99 1016.23 1016.35 1016.51 1016.79 1016.95 1017.19 1017.43 1017.63 1017.79 1017.95 1018.11 1018.19 1018.31 1018.39 1018.51 1018.63 1018.71 1018.75 1018.91 1019.11 1019.31 1019.59 1019.75 1019.87 1019.99 1019.99 1020.07 1020.15 1020.27 1020.43 1020.55 1020.63 1020.71 1020.87 1020.91 1020.91 1021.19 1021.39 1021.59 1021.71 1021.75 1021.87 1022.03 1022.15 1022.23 1022.39 1022.55 1022.59 1022.59 1022.79 1022.71 1022.75 1022.91 1023.11 1023.03
1015.07 1015.15 1015.31 1015.51 1015.71 1015.87 1016.11 1016.39 1016.55 1016.71 1016.87 1017.07 1017.27 1017.43 1017.63 1017.75 1017.95 1018.03 1018.15 1018.27 1018.35 1018.43 1018.63 1018.67 1018.79 1018.95 1019.07 1019.27 1019.51 1019.87 1019.91 1019.99 1019.99 1020.07 1020.19 1020.27 1020.47 1020.59 1020.71 1020.75 1020.91 1021.07 1021.11 1021.31 1021.55 1021.67 1021.83 1021.91 1022.07 1022.23 1022.35 1022.47 1022.59 1022.67 1022.63 1022.39 1022.51 1022.95 1023.19 1023.15 1023.11 1023.19
1014.83 1015.03 1015.27 1015.43 1015.67 1015.91 1016.15 1016.47 1016.63 1016.79 1016.99 1017.15 1017.31 1017.47 1017.63 1017.83 1017.95 1018.07 1018.15 1018.23 1018.35 1018.47 1018.63 1018.75 1018.91 1019.07 1019.19 1019.23 1019.51 1019.79 1019.87 1019.99 1020.11 1020.11 1020.31 1020.35 1020.51 1020.63 1020.79 1020.87 1020.91 1021.19 1021.31 1021.39 1021.59 1021.75 1021.83 1021.99 1022.23 1022.39 1022.55 1022.63 1022.67 1022.75 1022.59 1022.47 1022.87 1023.27 1023.27 1023.23 1023.35 1023.35
1014.47 1014.75 1015.07 1015.39 1015.67 1015.99 1016.23 1016.51 1016.79 1016.95 1017.15 1017.27 1017.39 1017.55 1017.71 1017.87 1017.99 1018.11 1018.19 1018.31 1018.39 1018.55 1018.63 1018.75 1018.91 1019.03 1019.15 1019.31 1019.51 1019.67 1019.83 1019.95 1020.07 1020.07 1020.19 1020.31 1020.47 1020.55 1020.75 1020.95 1021.07 1021.15 1021.39 1021.59 1021.71 1021.87 1021.95 1022.07 1022.35 1022.51 1022.71 1022.75 1022.75 1022.79 1022.67 1022.87 1023.19 1023.39 1023.23 1023.15 1023.47 1023.47
1014.03 1014.43 1014.91 1015.31 1015.63 1015.87 1016.23 1016.55 1016.75 1016.99 1017.15 1017.27 1017.43 1017.59 1017.75 1017.87 1017.99 1018.07 1018.15 1018.27 1018.39 1018.51 1018.63 1018.75 1018.91 1019.03 1019.19 1019.27 1019.51 1019.67 1019.83 1019.99 1020.03 1020.03 1020.07 1020.15 1020.31 1020.47 1020.75 1020.87 1020.99 1021.19 1021.39 1021.67 1021.95 1021.99 1022.07 1021.99 1022.23 1022.79 1022.83 1022.95 1023.03 1022.95 1022.95 1023.19 1023.51 1023.51 1023.15 1023.43 1023.67 1023.63
1013.79 1014.23 1014.67 1015.07 1015.39 1015.67 1015.91 1016.15 1016.47 1016.79 1016.95 1017.19 1017.43 1017.63 1017.83 1017.87 1017.95 1017.99 1018.11 1018.23 1018.35 1018.43 1018.55 1018.67 1018.79 1018.91 1019.07 1019.23 1019.51 1019.71 1019.83 1019.99 1020.03 1020.03 1020.03 1020.07 1020.23 1020.51 1020.79 1020.91 1020.95 1021.27 1021.43 1021.55 1021.91 1021.95 1021.99 1021.95 1022.47 1022.75 1023.03 1023.35 1023.43 1023.43 1023.35 1023.43 1023.55 1023.55 1023.35 1023.79 1024.03 1023.99
1013.63 1013.99 1014.47 1014.83 1015.19 1015.55 1015.75 1015.99 1016.27 1016.59 1016.83 1017.19 1017.27 1017.39 1017.55 1017.67 1017.75 1017.95 1018.15 1018.27 1018.39 1018.47 1018.55 1018.67 1018.75 1018.87 1019.07 1019.27 1019.43 1019.63 1019.87 1019.95 1020.03 1019.99 1020.15 1020.23 1020.31 1020.55 1020.75 1020.87 1020.87 1020.95 1021.55 1021.67 1021.79 1021.91 1021.95 1021.83 1022.27 1022.63 1022.75 1023.07 1023.67 1023.87 1023.75 1023.59 1023.63 1023.63 1023.71 1023.99 1024.27 1024.43
1013.79 1013.99 1014.31 1014.67 1014.99 1015.31 1015.59 1015.91 1016.23 1016.51 1016.79 1017.03 1017.35 1017.47 1017.59 1017.67 1017.79 1018.03 1018.31 1018.43 1018.51 1018.55 1018.63 1018.71 1018.79 1018.87 1019.03 1019.19 1019.35 1019.59 1019.75 1019.91 1019.99 1019.95 1020.15 1020.31 1020.39 1020.51 1020.71 1020.87 1020.87 1020.95 1021.07 1021.71 1021.83 1021.91 1021.91 1021.87 1021.87 1022.15 1023.07 1023.23 1023.59 1023.55 1023.95 1023.95 1023.95 1023.91 1023.83 1023.95 1024.03 1023.63
1013.87 1014.03 1014.31 1014.63 1014.99 1015.31 1015.67 1016.11 1016.47 1016.79 1016.99 1017.31 1017.47 1017.67 1017.75 1017.95 1017.95 1018.03 1018.31 1018.51 1018.59 1018.67 1018.71 1018.79 1018.87 1018.95 1019.03 1019.23 1019.39 1019.59 1019.79 1019.91 1019.99 1020.07 1020.19 1020.35 1020.43 1020.47 1020.59 1020.75 1020.79 1020.87 1020.95 1021.15 1021.71 1021.79 1021.91 1021.91 1021.83 1021.79 1022.11 1023.15 1023.67 1023.91 1023.87 1023.83 1023.79 1024.19 1024.07 1024.07 1023.99 1023.67
1014.03 1014.19 1014.43 1014.71 1014.99 1015.27 1015.67 1016.11 1016.59 1017.03 1017.35 1017.55 1017.87 1017.95 1017.95 1017.91 1018.07 1018.11 1018.31 1018.55 1018.71 1018.75 1018.79 1018.87 1018.95 1019.03 1019.11 1019.23 1019.43 1019.63 1019.83 1020.03 1020.15 1020.23 1020.31 1020.39 1020.43 1020.55 1020.67 1020.79 1020.87 1020.87 1020.95 1021.03 1021.11 1021.67 1021.87 1021.91 1021.91 1021.91 1021.91 1021.91 1022.03 1022.43 1023.43 1023.59 1023.47 1024.63 1024.39 1024.27 1024.23 1023.91
1014.07 1014.35 1014.55 1014.83 1015.03 1015.27 1015.71 1015.99 1016.23 1016.51 1016.75 1017.15 1017.51 1017.79 1017.75 1017.79 1017.91 1018.19 1018.31 1018.59 1018.75 1018.83 1018.87 1018.95 1019.03 1019.07 1019.19 1019.27 1019.43 1019.63 1019.83 1020.03 1020.19 1020.31 1020.43 1020.55 1020.67 1020.67 1020.71 1020.83 1020.95 1021.03 1021.03 1021.11 1021.27 1021.51 1021.67 1021.79 1022.03 1022.11 1022.11 1021.99 1022.03 1022.23 1022.31 1022.99 1023.83 1024.31 1024.67 1024.71 1024.71 1024.63
1014.15 1014.47 1014.67 1014.91 1015.11 1015.27 1015.67 1015.99 1016.23 1016.51 1016.75 1017.11 1017.35 1017.63 1017.79 1017.95 1018.11 1018.19 1018.39 1018.67 1018.83 1018.95 1018.99 1018.99 1019.07 1019.19 1019.23 1019.31 1019.47 1019.67 1019.83 1020.03 1020.19 1020.35 1020.43 1020.59 1020.67 1020.71 1020.83 1020.91 1020.95 1021.03 1021.07 1021.07 1021.19 1021.27 1021.59 1021.67 1021.71 1022.11 1022.19 1022.07 1022.15 1022.43 1022.47 1022.47 1022.51 1022.99 1023.87 1024.63 1025.07 1024.79
1014.27 1014.55 1014.83 1014.99 1015.23 1015.47 1015.63 1015.87 1016.11 1016.43 1016.87 1017.27 1017.47 1017.75 1017.95 1018.03 1018.15 1018.27 1018.51 1018.75 1018.83 1018.99 1019.03 1019.07 1019.15 1019.19 1019.27 1019.31 1019.43 1019.59 1019.83 1019.99 1020.19 1020.31 1020.35 1020.51 1020.63 1020.71 1020.83 1020.95 1021.07 1021.15 1021.19 1021.19 1021.15 1021.15 1021.31 1021.47 1021.63 1021.87 1022.15 1022.35 1022.27 1022.43 1022.51 1022.63 1022.87 1022.99 1023.71 1024.51 1024.99 1024.95
1014.35 1014.59 1014.83 1015.07 1015.31 1015.51 1015.71 1015.91 1016.15 1016.43 1016.83 1017.39 1017.63 1017.95 1017.95 1018.23 1018.35 1018.39 1018.63 1018.91 1018.99 1019.11 1019.23 1019.27 1019.27 1019.27 1019.31 1019.35 1019.43 1019.59 1019.75 1019.87 1020.03 1020.15 1020.27 1020.43 1020.59 1020.71 1020.83 1020.91 1020.99 1021.03 1021.11 1021.15 1021.27 1021.23 1021.19 1021.27 1021.39 1021.71 1021.71 1021.95 1022.19 1022.47 1022.55 1022.75 1022.87 1023.11 1023.59 1023.71 1024.39 1025.11
1014.43 1014.67 1014.91 1015.11 1015.31 1015.55 1015.71 1015.91 1016.11 1016.43 1016.75 1017.19 1017.59 1017.83 1018.15 1018.43 1018.51 1018.59 1018.83 1019.11 1019.19 1019.27 1019.31 1019.35 1019.35 1019.31 1019.31 1019.35 1019.43 1019.51 1019.67 1019.75 1019.87 1019.99 1020.11 1020.35 1020.51 1020.59 1020.75 1020.87 1020.95 1020.99 1021.03 1021.11 1021.27 1021.31 1021.35 1021.39 1021.47 1021.59 1021.79 1021.75 1021.83 1021.83 1021.91 1022.27 1022.63 1022.83 1023.07 1023.99 1024.71 1025.15
1014.51 1014.71 1014.95 1015.19 1015.39 1015.59 1015.79 1015.95 1016.11 1016.35 1016.59 1016.91 1017.27 1017.67 1017.95 1018.27 1018.43 1018.63 1018.83 1019.11 1019.31 1019.31 1019.35 1019.35 1019.39 1019.35 1019.35 1019.35 1019.39 1019.47 1019.59 1019.71 1019.83 1019.95 1020.03 1020.15 1020.35 1020.51 1020.67 1020.79 1020.91 1020.95 1021.03 1021.07 1021.15 1021.23 1021.35 1021.47 1021.51 1021.55 1021.63 1021.75 1021.75 1021.79 1021.75 1021.71 1022.15 1022.39 1022.79 1023.35 1023.63 1024.67
1014.59 1014.75 1014.99 1015.19 1015.39 1015.67 1015.83 1015.95 1016.11 1016.31 1016.51 1016.79 1017.07 1017.43 1017.79 1018.11 1018.47 1018.67 1018.91 1019.11 1019.23 1019.23 1019.39 1019.39 1019.39 1019.31 1019.31 1019.39 1019.47 1019.47 1019.55 1019.67 1019.79 1019.87 1019.99 1020.15 1020.31 1020.47 1020.59 1020.71 1020.79 1020.91 1020.99 1021.07 1021.03 1021.11 1021.27 1021.39 1021.51 1021.55 1021.59 1021.83 1021.91 1021.95 1021.91 1022.07 1022.23 1022.55 1022.79 1023.07 1023.51 1024.59
1014.71 1014.83 1014.95 1015.11 1015.31 1015.51 1015.63 1015.75 1015.95 1016.11 1016.39 1016.63 1017.03 1017.31 1017.67 1018.03 1018.47 1018.63 1018.75 1018.83 1018.95 1019.03 1019.23 1019.19 1019.31 1019.23 1019.23 1019.27 1019.39 1019.47 1019.47 1019.63 1019.75 1019.91 1020.03 1020.19 1020.35 1020.51 1020.59 1020.67 1020.79 1020.87 1020.95 1020.99 1021.03 1021.11 1021.15 1021.31 1021.55 1021.63 1021.67 1021.79 1021.87 1021.99 1022.03 1022.15 1022.39 1022.51 1022.87 1023.27 1023.71 1023.91
1014.83 1014.99 1014.91 1014.95 1015.15 1015.35 1015.47 1015.63 1015.87 1016.07 1016.27 1016.55 1016.95 1017.31 1017.63 1017.87 1018.27 1018.59 1018.67 1018.71 1018.87 1018.99 1019.07 1019.23 1019.19 1019.27 1019.39 1019.35 1019.39 1019.47 1019.55 1019.63 1019.75 1019.83 1019.95 1020.11 1020.31 1020.47 1020.59 1020.71 1020.79 1020.87 1020.95 1021.07 1021.11 1021.19 1021.27 1021.31 1021.55 1021.67 1021.67 1021.67 1021.79 1021.95 1022.03 1022.19 1022.27 1022.51 1022.51 1022.71 1023.11 1023.63
1014.59 1014.95 1015.03 1015.03 1015.15 1015.31 1015.51 1015.71 1015.91 1016.15 1016.39 1016.67 1017.07 1017.39 1017.67 1017.91 1018.15 1018.23 1018.47 1018.59 1018.79 1018.95 1019.03 1019.15 1019.39 1019.39 1019.47 1019.35 1019.35 1019.43 1019.55 1019.67 1019.75 1019.83 1019.95 1020.11 1020.27 1020.43 1020.59 1020.75 1020.95 1021.03 1021.07 1021.19 1021.15 1021.23 1021.23 1021.31 1021.47 1021.59 1021.63 1021.67 1021.75 1021.83 1022.11 1022.19 1022.23 1022.39 1022.51 1022.59 1022.83 1023.15
1014.55 1014.75 1014.91 1015.11 1015.27 1015.55 1015.79 1015.99 1016.15 1016.31 1016.55 1016.87 1017.11 1017.31 1017.55 1017.79 1018.07 1018.39 1018.55 1018.71 1018.79 1019.03 1019.15 1019.23 1019.35 1019.47 1019.47 1019.51 1019.47 1019.47 1019.55 1019.71 1019.79 1019.87 1019.99 1020.19 1020.35 1020.47 1020.59 1020.79 1020.95 1021.07 1021.15 1021.15 1021.11 1021.07 1021.19 1021.23 1021.47 1021.63 1021.67 1021.63 1021.59 1021.79 1022.07 1022.23 1022.31 1022.43 1022.59 1022.79 1022.79 1022.91
Wind_Speed
8 9 8 7 7 7 10 14 13 14 14 14 13 13 12 12 11 11 9 11 8 6 6 5 6 6 10 7 10 11 12 11 10 9 9 8 8 7 7 7 9 10 10 10 9 6 5 5 6 8 14 14 13 6 5 5 5 4 4 4 4 4
8 9 8 6 5 6 7 9 6 6 7 9 10 10 8 6 7 6 11 8 5 4 5 5 5 8 5 7 8 12 12 11 10 9 8 7 8 7 7 7 7 8 8 8 8 4 3 4 7 9 13 11 7 5 5 5 5 5 4 4 4 5
8 9 8 7 6 5 6 5 5 5 6 8 8 8 6 7 6 6 7 6 5 4 4 5 4 6 6 10 9 12 11 11 10 10 8 7 7 7 7 6 5 7 7 7 5 3 3 4 4 11 11 8 5 5 5 5 5 4 4 3 3 8
9 9 8 6 6 6 6 5 5 5 5 5 6 6 6 6 6 7 6 6 5 4 4 4 9 13 10 6 7 11 12 11 11 10 9 5 6 6 6 5 6 6 5 4 5 4 4 4 5 5 5 6 5 5 5 5 4 4 4 3 1 9
8 8 8 7 7 6 6 5 5 6 6 5 6 6 5 6 6 7 6 5 5 4 4 5 6 5 5 5 5 5 5 5 4 4 6 4 3 3 3 3 3 4 5 5 5 4 4 5 4 5 5 5 5 5 5 4 4 4 3 3 2 8
8 8 8 7 7 8 8 6 6 7 7 5 6 6 5 5 5 6 5 5 4 4 5 5 5 5 5 5 5 5 4 4 4 4 3 3 2 2 2 2 3 5 4 4 4 5 4 5 5 5 5 5 5 5 5 4 4 4 3 3 3 7
8 8 8 7 7 6 6 6 6 7 7 6 5 6 5 5 5 5 5 4 5 4 5 5 5 5 5 4 4 4 4 4 5 4 3 2 2 2 1 2 3 4 4 4 3 3 4 5 6 6 5 5 5 5 5 4 4 4 3 3 3 7
8 8 7 7 6 6 6 7 7 8 6 7 6 6 5 5 5 5 4 4 5 4 5 5 5 5 4 4 4 4 4 4 3 3 1 2 2 1 1 1 3 5 5 4 4 4 4 4 5 6 7 5 5 5 5 4 4 4 3 3 1 4
9 9 7 7 7 6 6 6 6 7 7 7 5 6 5 5 5 4 4 4 4 5 5 5 5 5 5 4 3 3 3 3 2 2 1 2 1 2 1 1 3 4 4 4 4 4 4 4 4 5 6 6 6 5 5 5 4 4 4 3 3 3
9 9 7 7 6 7 6 7 6 6 6 7 6 6 7 5 3 4 4 4 4 5 5 5 5 4 4 3 3 3 2 2 2 1 1 1 1 1 1 1 3 4 5 5 5 4 4 4 4 4 5 6 5 5 5 5 5 4 3 3 3 3
8 9 7 7 7 7 7 7 6 6 6 6 6 5 5 5 4 4 4 5 5 5 5 4 5 4 4 4 3 3 2 1 1 1 0 1 1 1 1 2 3 4 5 5 5 4 5 5 4 4 4 5 5 5 5 4 4 4 3 3 3 3
8 7 7 8 7 8 7 7 7 6 6 6 6 5 5 4 5 4 4 5 4 5 5 4 5 4 5 4 3 3 2 2 1 1 1 1 1 1 2 3 3 4 5 5 5 5 5 5 5 4 4 4 4 5 5 4 5 5 4 4 4 4
7 7 8 9 8 7 7 7 7 7 7 6 5 4 5 5 4 4 4 5 4 4 4 5 4 5 4 4 3 2 2 2 2 1 1 2 3 2 3 3 3 4 5 5 5 5 5 5 5 5 5 5 5 6 5 5 5 6 5 4 4 4
7 7 8 7 7 7 6 6 6 5 7 7 6 5 5 4 5 5 4 5 5 4 4 4 5 4 4 4 3 3 2 2 2 2 2 3 3 3 3 4 3 4 5 5 5 4 5 5 5 5 5 5 5 5 5 5 6 5 4 5 3 4
8 7 8 7 7 7 6 6 6 5 5 6 6 5 5 5 5 5 5 5 5 5 4 4 4 5 4 4 3 3 2 2 3 2 2 2 4 4 3 4 3 5 5 5 5 6 6 6 6 6 6 4 5 4 6 7 4 4 3 4 4 4
8 7 6 6 6 6 6 5 5 6 5 5 6 5 5 5 6 4 5 5 5 5 5 4 4 5 5 4 4 4 3 3 4 3 2 2 3 4 4 4 3 4 5 5 6 6 5 6 6 6 6 5 6 7 6 4 5 5 3 3 4 4
8 7 6 6 6 6 5 5 5 5 6 6 6 6 5 5 5 5 5 6 5 5 5 5 5 5 5 5 3 3 3 3 4 4 3 4 4 4 4 4 3 4 4 4 6 7 6 6 7 6 6 7 7 8 5 3 4 4 4 5 5 3
7 7 6 6 6 6 5 5 4 5 5 5 5 5 5 5 5 5 4 5 5 5 5 5 4 4 5 4 3 3 4 4 4 3 3 4 4 4 4 3 4 4 4 4 5 7 7 7 7 7 7 7 7 8 6 3 3 5 5 4 4 4
9 8 7 6 6 6 6 5 4 5 5 5 5 4 4 4 5 5 4 4 4 4 5 5 4 4 4 4 4 5 5 5 5 4 3 4 4 4 4 3 4 4 5 5 5 6 8 7 8 7 7 7 8 7 5 4 4 5 3 4 4 5
9 8 7 6 6 5 5 5 6 5 5 4 4 4 3 4 4 4 4 5 4 4 5 5 5 5 5 5 5 5 5 4 5 5 4 5 4 4 5 5 4 5 7 7 6 5 6 8 7 8 8 7 7 7 4 5 5 4 5 4 5 4
10 9 8 7 6 7 7 6 5 6 5 5 5 4 3 3 4 4 5 5 5 5 5 5 5 5 5 5 4 5 5 4 4 5 4 4 5 5 4 5 5 4 7 7 5 4 5 5 9 7 7 8 8 6 4 6 6 3 3 4 6 4
10 10 9 8 7 7 6 5 5 5 5 6 5 4 3 3 4 4 5 4 4 4 5 5 5 4 5 5 5 5 5 5 5 4 4 3 4 5 6 6 6 4 2 6 4 4 3 3 4 6 7 5 7 7 5 5 6 3 3 5 5 3
10 10 9 9 8 7 6 6 6 5 6 4 3 3 3 3 3 4 3 4 4 4 5 4 5 5 5 5 5 5 5 4 4 5 5 5 4 5 5 7 6 6 6 2 3 3 1 1 4 4 4 5 3 3 0 3 4 4 4 5 6 4
9 9 9 9 8 7 7 6 5 6 5 4 4 4 3 3 4 4 3 3 3 5 5 5 5 5 4 5 6 6 5 4 4 4 4 5 5 5 6 5 4 5 7 6 3 4 1 0 4 8 3 1 2 2 5 3 5 3 4 7 6 3
8 9 8 8 8 8 8 7 6 6 6 5 5 4 4 3 3 3 4 3 3 3 4 4 4 4 4 5 4 4 5 4 4 4 4 4 5 5 4 5 5 6 7 7 5 3 4 1 4 1 6 5 4 1 2 3 4 4 4 5 5 2
6 7 8 9 9 8 8 8 8 7 7 4 5 5 6 6 3 5 5 2 3 2 3 3 3 4 4 4 4 4 4 4 3 4 4 4 3 3 4 5 4 5 5 3 7 6 4 1 2 3 2 2 4 4 7 4 3 3 4 6 5 2
7 6 7 8 9 8 8 8 9 9 7 7 7 3 1 2 5 3 5 5 4 2 2 4 3 3 4 3 4 4 5 5 4 4 4 3 4 5 5 6 3 4 3 4 5 5 6 3 3 1 1 0 1 2 7 8 3 5 4 3 5 4
6 6 6 7 8 7 8 7 7 6 6 6 6 5 4 4 3 4 5 4 5 3 3 3 4 3 4 4 4 4 4 4 4 4 4 4 5 4 3 4 4 4 4 4 5 6 5 5 7 4 1 2 3 4 3 3 5 6 6 6 4 5
7 7 6 7 7 6 7 7 7 7 6 3 4 5 5 4 5 4 6 3 4 4 3 2 2 4 4 5 5 5 5 5 5 5 5 4 4 4 6 5 4 3 4 4 5 4 5 5 5 4 5 4 5 4 4 4 5 4 5 6 4 4
8 7 7 7 6 7 6 6 7 7 8 6 6 5 5 6 5 4 5 3 3 4 4 2 2 3 4 4 4 5 5 6 5 5 4 5 4 4 4 5 5 5 5 5 4 4 6 5 5 4 5 6 4 4 4 3 4 6 6 4 7 6
7 6 6 6 6 7 6 6 7 7 8 8 7 8 7 6 6 5 6 4 4 3 2 4 3 1 2 3 4 4 5 5 4 5 5 5 5 5 5 5 4 4 4 5 5 5 3 3 4 4 5 6 7 8 7 6 7 5 6 7 8 6
7 7 6 6 6 6 6 6 6 7 8 8 9 8 9 8 7 7 6 6 3 4 2 1 2 3 2 2 3 3 3 4 4 4 5 4 4 4 4 4 4 5 4 4 4 5 4 4 5 4 5 5 6 5 4 5 6 6 9 9 10 9
7 6 6 6 6 5 5 5 7 7 7 7 8 8 8 8 6 7 6 6 5 5 4 4 2 3 2 2 3 4 5 5 4 4 3 4 3 4 4 5 5 5 4 5 5 5 5 5 5 5 4 2 3 4 2 2 6 6 5 8 10 9
6 6 6 7 7 7 7 7 6 7 7 7 7 8 7 8 6 7 7 7 7 7 7 6 5 4 3 2 2 2 3 4 3 3 4 4 4 4 4 5 4 5 5 5 4 5 5 5 5 3 4 3 3 4 3 4 6 7 8 9 8 11
7 5 7 8 7 7 7 7 6 6 8 7 7 7 7 8 8 7 6 7 6 6 6 5 6 4 3 3 3 4 3 4 4 4 4 4 4 5 5 4 4 4 3 3 4 4 4 5 5 5 5 5 4 3 4 5 6 6 8 9 10 10
9 6 4 6 6 7 6 6 6 7 6 7 6 6 6 6 6 7 7 6 6 5 5 5 3 4 2 3 4 4 4 4 4 4 3 4 4 4 5 5 4 3 3 2 4 5 4 5 5 6 5 4 4 4 4 5 6 7 7 7 9 8
7 6 6 5 6 5 5 5 5 6 7 6 8 8 8 8 7 4 4 4 6 4 4 4 4 2 4 2 3 4 4 4 4 4 4 4 4 4 4 4 5 5 4 4 4 5 4 4 4 5 5 6 5 4 5 4 5 6 6 5 7 8
Wind_Direction
125 129 131 131 130 136 143 143 144 145 148 146 144 142 143 138 134 131 123 111 87 91 99 115 119 118 116 113 117 120 111 112 111 113 111 103 96 90 80 79 87 88 89 87 88 80 73 78 82 124 143 145 134 115 125 116 114 115 118 125 133 159
121 128 130 126 130 134 137 138 135 143 142 144 144 134 129 119 124 114 113 109 104 103 117 116 118 118 115 119 120 113 110 113 112 105 97 93 89 81 78 77 79 85 88 87 91 83 49 64 96 123 141 121 107 120 111 111 114 123 120 130 142 156
127 132 131 129 132 127 120 113 116 125 135 132 129 113 102 107 98 105 106 107 115 115 110 112 113 121 118 120 112 112 115 114 112 111 110 105 98 90 78 75 76 82 83 88 87 90 103 84 80 131 125 115 115 109 112 115 117 120 129 143 142 145
136 138 137 137 128 121 120 113 113 109 106 101 97 102 103 106 103 100 103 106 112 116 115 125 135 128 116 99 112 117 117 117 117 115 108 88 85 78 65 52 70 77 78 77 95 103 102 77 93 102 110 117 117 120 123 121 118 114 122 142 215 147
146 143 143 142 136 133 126 118 108 106 107 101 99 98 100 98 101 101 105 108 110 113 101 80 77 82 86 97 86 80 75 76 78 81 90 69 48 45 49 37 13 50 65 89 100 121 118 94 90 114 116 121 121 118 108 103 102 113 115 111 188 145
153 152 152 147 142 137 131 120 113 113 111 101 102 99 98 102 103 109 118 122 112 101 90 89 88 93 96 103 96 96 89 91 79 73 65 77 45 39 46 13 23 56 51 76 108 138 138 122 111 104 101 102 112 106 102 107 111 113 116 117 161 144
153 152 149 140 135 124 118 112 109 116 115 115 105 109 104 106 117 130 139 139 123 101 96 96 96 96 96 89 96 93 99 83 85 67 41 76 59 9 359 19 34 55 59 65 85 123 126 112 120 116 108 108 107 107 112 115 113 111 114 123 171 140
156 153 145 141 126 117 114 119 122 121 111 122 115 115 116 131 142 142 133 105 100 104 112 108 100 99 97 86 83 72 75 77 64 60 50 66 85 49 10 354 61 59 55 54 79 89 94 103 115 123 123 119 116 118 118 118 116 124 125 130 79 133
161 152 142 138 119 115 118 110 112 119 124 129 120 131 141 144 139 124 104 96 109 109 99 109 108 100 92 85 83 71 55 68 68 59 46 59 110 138 110 14 51 71 65 68 72 82 85 78 97 123 129 126 117 118 121 120 124 128 132 125 99 126
164 153 141 130 119 123 121 118 121 127 134 132 142 143 145 141 124 119 97 88 87 97 100 112 111 103 108 97 98 83 64 62 70 52 72 101 141 166 153 53 57 56 72 72 75 78 83 83 81 97 114 116 121 127 131 135 128 122 118 107 106 108
159 149 130 134 125 123 126 127 135 137 136 138 141 138 133 132 117 95 101 97 92 97 108 112 115 114 105 111 98 95 95 89 91 91 80 111 118 127 54 63 61 75 83 88 82 76 82 82 73 71 90 115 132 130 127 114 99 91 91 99 91 79
152 141 134 132 131 133 136 142 142 134 137 136 135 129 121 117 117 102 108 105 105 109 114 116 121 121 122 119 113 111 128 135 135 138 124 103 80 76 81 74 68 70 78 85 85 73 69 86 75 63 66 91 114 113 96 80 74 67 63 52 57 67
142 139 144 143 142 143 142 144 143 135 139 135 128 121 120 114 106 108 108 110 113 121 127 133 130 126 130 130 133 142 153 167 135 133 133 128 121 91 78 70 61 69 73 73 75 73 80 83 84 75 78 79 83 89 98 108 117 112 105 100 82 79
145 147 154 146 145 144 146 141 132 129 135 135 135 129 122 107 115 115 120 125 128 132 138 140 135 128 143 144 150 178 176 157 141 139 143 144 123 111 94 84 66 63 66 71 77 69 83 83 77 76 75 81 90 113 126 97 57 50 51 57 65 78
154 155 152 149 147 147 145 140 137 131 127 130 130 122 120 116 118 129 131 137 135 140 146 150 145 139 143 151 160 169 184 157 141 132 136 137 124 101 86 76 58 84 69 72 77 74 80 82 85 82 76 80 99 97 61 61 77 96 83 80 79 61
156 157 151 149 150 149 144 134 134 133 122 125 126 124 126 131 132 133 138 136 144 141 144 145 133 129 128 147 160 166 180 146 138 124 123 114 105 99 96 78 51 63 93 77 83 75 75 84 83 80 70 71 73 73 71 147 138 87 74 82 70 62
158 155 146 138 140 134 124 126 131 123 126 126 125 123 129 131 134 138 139 141 149 145 145 144 147 144 144 151 142 152 156 141 125 132 124 98 89 86 107 99 57 48 82 108 101 95 79 88 89 79 76 72 75 94 112 73 63 106 83 59 55 49
161 153 148 146 142 135 122 114 116 115 120 117 121 123 130 134 136 139 140 146 149 141 145 149 153 153 137 154 132 147 143 133 119 113 116 106 99 87 83 104 98 55 58 84 103 108 104 101 90 84 78 78 82 101 121 149 132 78 62 82 76 67
159 152 146 139 131 115 115 107 102 112 108 108 112 121 130 127 137 140 153 146 140 141 142 142 135 142 151 156 148 155 148 142 122 118 127 125 123 107 93 80 102 91 68 76 98 108 114 107 96 83 80 80 87 100 123 125 101 95 109 116 77 65
155 150 142 136 131 126 128 133 131 122 123 123 123 122 116 130 139 148 149 141 144 146 146 160 153 166 157 160 159 156 151 142 135 142 148 141 144 134 127 120 118 115 101 83 80 105 115 108 91 85 82 75 84 104 108 95 89 106 128 131 95 69
152 149 144 141 143 141 138 138 134 147 146 141 138 129 121 131 142 153 146 144 153 155 159 157 162 158 159 157 150 152 145 142 144 154 157 160 147 120 128 141 131 114 120 115 104 108 128 119 108 84 76 75 72 80 81 67 76 100 137 73 70 54
151 150 151 151 146 149 152 158 154 151 133 139 141 145 145 157 158 146 144 149 153 160 159 161 156 156 150 154 157 159 153 151 157 158 152 143 126 128 136 141 137 95 72 130 132 160 168 102 54 127 124 99 73 63 57 70 81 108 90 84 79 75
152 152 149 147 148 151 150 145 148 138 141 122 99 115 127 161 143 127 135 149 149 152 156 159 159 156 150 160 160 160 158 152 159 149 149 163 166 149 151 155 162 141 132 90 123 156 128 94 131 119 102 102 118 121 338 65 69 64 94 88 96 112
150 149 145 149 151 144 138 125 106 121 117 112 143 131 99 111 110 106 121 136 141 147 157 158 158 154 149 157 162 164 155 156 162 152 164 179 177 177 153 158 150 152 140 137 150 188 171 127 140 140 99 99 157 114 114 71 80 24 49 87 106 160
147 144 143 144 142 133 125 105 105 95 96 82 78 104 114 79 104 135 110 116 152 138 144 145 148 143 147 150 143 148 153 156 151 148 176 184 191 194 174 157 160 153 170 153 162 165 204 226 147 79 140 120 72 94 208 146 127 51 33 67 77 115
132 133 142 144 142 142 139 135 131 135 138 121 127 140 163 164 134 141 158 130 101 131 134 135 140 133 130 137 141 148 148 149 150 152 180 190 195 196 194 167 174 174 169 180 154 155 178 268 142 73 117 149 165 173 161 182 101 119 39 58 75 70
134 135 140 144 148 143 139 145 153 158 152 153 153 178 99 118 145 109 103 118 127 108 113 130 121 123 130 136 135 147 155 158 157 155 177 172 198 206 202 198 161 172 187 130 127 161 178 168 119 29 30 289 142 95 149 139 146 116 101 47 50 28
133 139 145 147 150 148 145 149 144 133 140 149 150 152 138 114 89 110 90 95 113 98 90 109 126 136 144 144 147 154 153 157 160 169 168 175 197 208 208 208 205 188 153 163 166 167 175 168 172 166 57 68 77 100 97 59 130 144 130 129 100 74
139 144 146 152 143 141 142 149 142 136 129 110 117 114 103 94 98 98 93 64 94 103 85 85 135 156 162 159 163 165 163 164 169 173 184 171 185 191 197 198 196 179 177 175 188 165 156 186 178 158 125 62 78 72 70 55 99 84 130 124 103 119
148 151 148 146 140 139 143 140 133 135 131 119 107 94 100 102 104 102 98 94 111 116 112 104 149 179 167 175 166 159 166 175 180 177 180 182 173 186 203 203 201 197 187 185 190 172 185 189 188 156 161 148 127 111 76 80 67 105 67 57 139 143
142 136 139 142 143 145 143 144 138 142 137 130 125 121 110 102 107 101 115 118 126 132 132 152 156 127 164 162 162 165 168 181 178 179 180 168 179 190 198 205 202 196 188 184 182 190 189 171 165 160 159 162 160 167 168 169 172 154 137 122 116 130
134 137 134 138 138 143 145 144 140 143 141 139 136 136 133 139 140 136 132 129 134 119 104 77 90 114 98 111 134 148 165 170 178 179 191 179 175 187 187 189 188 193 195 187 178 180 175 166 180 185 185 176 181 184 164 162 160 143 140 147 140 143
135 133 134 138 139 137 141 148 149 146 139 140 139 137 140 138 146 136 139 134 142 138 141 126 177 136 151 133 145 137 140 164 180 191 176 166 171 172 174 185 198 199 181 184 192 185 178 184 175 190 198 161 152 178 183 67 115 123 109 127 131 126
126 134 138 140 143 148 157 156 157 150 144 142 143 143 143 140 150 150 154 154 157 160 164 170 175 175 190 131 95 117 138 142 144 141 145 142 131 143 158 174 182 186 192 195 176 189 195 173 151 131 133 144 150 152 133 120 121 128 132 129 138 137
134 148 151 148 145 151 155 155 157 151 145 146 144 145 147 145 149 156 168 155 163 159 155 171 165 172 165 126 117 104 113 116 120 119 114 112 111 119 134 136 157 180 164 159 171 172 184 163 150 148 143 156 148 139 143 144 139 142 149 147 145 149
144 152 149 140 145 152 150 144 142 136 137 132 131 131 131 137 151 159 163 160 161 164 157 151 155 137 177 130 120 100 97 104 111 105 96 97 102 110 121 121 112 122 137 159 155 176 189 168 149 150 149 142 126 146 141 150 149 149 157 156 148 154
132 136 149 147 134 123 116 119 119 124 128 132 143 151 154 156 158 157 148 153 147 148 136 139 144 132 126 78 93 105 100 100 86 81 80 79 91 103 108 112 127 132 145 180 168 185 174 177 144 144 150 165 162 149 143 136 134 140 143 149 159 160